• In Czech Republic
  • List of Countries
  • For 7 days
  • Water Temperature
  • Satellite Maps
  • Weather Map
  • Weather Widgets
  • user-avatar
    Login

    Hourly Weather Ashton-under-Lyne

    Today, 21 January, Sunday

    Time Temperature Precipitation Wind Pressure Humidity
    00:00 +1°C° 0 mm 1 mps 747 mmHg 86%
    01:00 +1°C° 0 mm 1 mps 747 mmHg 86%
    02:00 +2°C° 0 mm 1 mps 748 mmHg 86%
    03:00 +2°C° 0 mm 1 mps 748 mmHg 85%
    04:00 +2°C° 0.1 mm 1 mps 748 mmHg 86%
    05:00 +1°C° 0.1 mm 2 mps 748 mmHg 86%
    06:00 +1°C° 0.1 mm 2 mps 748 mmHg 87%
    07:00 +1°C° 0.8 mm 2 mps 748 mmHg 88%
    08:00 0°C° 0.8 mm 3 mps 747 mmHg 89%
    09:00 -1°C° 0.8 mm 4 mps 747 mmHg 90%
    10:00 -1°C° 0.9 mm 5 mps 747 mmHg 91%
    11:00 -1°C° 0.9 mm 5 mps 746 mmHg 91%
    12:00 -2°C° 0.9 mm 6 mps 746 mmHg 92%
    13:00 -1°C° 0.9 mm 6 mps 745 mmHg 93%
    14:00 -1°C° 0.9 mm 6 mps 744 mmHg 94%
    15:00 -1°C° 0.9 mm 6 mps 743 mmHg 95%
    16:00 0°C° 1.2 mm 5 mps 743 mmHg 96%
    17:00 0°C° 1.2 mm 4 mps 742 mmHg 97%
    18:00 0°C° 1.2 mm 4 mps 742 mmHg 97%
    19:00 +1°C° 0.2 mm 4 mps 742 mmHg 98%
    20:00 +3°C° 0.2 mm 4 mps 741 mmHg 98%
    21:00 +3°C° 0.2 mm 3 mps 741 mmHg 98%
    22:00 +4°C° 0 mm 4 mps 741 mmHg 97%
    23:00 +3°C° 0 mm 5 mps 742 mmHg 96%

    Tomorrow, 22 January, Monday

    Time Temperature Precipitation Wind Pressure Humidity
    00:00 +4°C° 0 mm 6 mps 742 mmHg 95%
    01:00 +3°C° 0 mm 5 mps 743 mmHg 94%
    02:00 +3°C° 0 mm 5 mps 743 mmHg 92%
    03:00 +2°C° 0 mm 5 mps 743 mmHg 91%
    04:00 +2°C° 0 mm 5 mps 744 mmHg 90%
    05:00 +3°C° 0 mm 4 mps 744 mmHg 90%
    06:00 +3°C° 0 mm 4 mps 745 mmHg 89%
    07:00 +3°C° 0 mm 4 mps 745 mmHg 89%
    08:00 +3°C° 0 mm 4 mps 746 mmHg 89%
    09:00 +3°C° 0 mm 4 mps 746 mmHg 88%
    10:00 +4°C° 0 mm 4 mps 747 mmHg 87%
    11:00 +3°C° 0 mm 5 mps 747 mmHg 86%
    12:00 +5°C° 0 mm 5 mps 748 mmHg 85%
    13:00 +5°C° 0 mm 5 mps 748 mmHg 85%
    14:00 +5°C° 0 mm 5 mps 748 mmHg 85%
    15:00 +5°C° 0 mm 4 mps 748 mmHg 86%
    16:00 +4°C° 0 mm 4 mps 749 mmHg 87%
    17:00 +4°C° 0 mm 4 mps 749 mmHg 88%
    18:00 +3°C° 0 mm 3 mps 749 mmHg 90%
    19:00 +3°C° 0 mm 3 mps 749 mmHg 90%
    20:00 +3°C° 0 mm 4 mps 750 mmHg 90%
    21:00 +1°C° 0 mm 4 mps 750 mmHg 90%
    22:00 +1°C° 0 mm 4 mps 750 mmHg 90%
    23:00 +1°C° 0 mm 4 mps 749 mmHg 90%

    Day after tomorrow, 23 January, Tuesday

    Time Temperature Precipitation Wind Pressure Humidity
    00:00 +1°C° 0 mm 4 mps 749 mmHg 90%
    01:00 +1°C° 0 mm 4 mps 749 mmHg 91%
    02:00 +3°C° 0 mm 4 mps 749 mmHg 92%
    03:00 +2°C° 0 mm 5 mps 748 mmHg 93%
    04:00 +2°C° 0 mm 5 mps 747 mmHg 92%
    05:00 +3°C° 0 mm 5 mps 747 mmHg 91%
    06:00 +3°C° 0 mm 6 mps 746 mmHg 91%
    07:00 +4°C° 0 mm 6 mps 746 mmHg 92%
    08:00 +5°C° 0 mm 7 mps 745 mmHg 92%
    09:00 +6°C° 0 mm 7 mps 745 mmHg 93%
    10:00 +8°C° 0 mm 7 mps 745 mmHg 91%
    11:00 +9°C° 0 mm 7 mps 745 mmHg 90%
    12:00 +10°C° 0 mm 7 mps 744 mmHg 88%
    13:00 +10°C° 0 mm 7 mps 744 mmHg 88%
    14:00 +10°C° 0 mm 7 mps 744 mmHg 88%
    15:00 +10°C° 0 mm 6 mps 743 mmHg 89%
    16:00 +9°C° 0.8 mm 6 mps 743 mmHg 90%
    17:00 +9°C° 0.8 mm 6 mps 743 mmHg 90%
    18:00 +9°C° 0.8 mm 6 mps 743 mmHg 91%
    19:00 +9°C° 0.2 mm 6 mps 743 mmHg 92%
    20:00 +9°C° 0.2 mm 6 mps 743 mmHg 92%
    21:00 +9°C° 0.2 mm 6 mps 742 mmHg 92%
    22:00 +9°C° 0.3 mm 6 mps 742 mmHg 90%
    23:00 +9°C° 0.3 mm 7 mps 741 mmHg 88%

    24 January, Wednesday

    Time Temperature Precipitation Wind Pressure Humidity
    00:00 +10°C° 0.3 mm 7 mps 741 mmHg 86%
    01:00 +10°C° 0.3 mm 8 mps 740 mmHg 85%
    02:00 +9°C° 0.3 mm 10 mps 739 mmHg 83%
    03:00 +9°C° 0.3 mm 11 mps 738 mmHg 81%
    04:00 +9°C° 0.6 mm 11 mps 738 mmHg 82%
    05:00 +9°C° 0.6 mm 10 mps 737 mmHg 83%
    06:00 +8°C° 0.6 mm 10 mps 737 mmHg 84%
    07:00 +7°C° 1.3 mm 9 mps 737 mmHg 80%
    08:00 +6°C° 1.3 mm 8 mps 738 mmHg 75%
    09:00 +5°C° 1.3 mm 7 mps 739 mmHg 71%
    10:00 +5°C° 0 mm 7 mps 739 mmHg 70%
    11:00 +6°C° 0 mm 7 mps 739 mmHg 69%
    12:00 +7°C° 0 mm 6 mps 739 mmHg 68%
    13:00 +7°C° 0.1 mm 6 mps 739 mmHg 69%
    14:00 +7°C° 0.1 mm 6 mps 739 mmHg 70%
    15:00 +7°C° 0.1 mm 6 mps 738 mmHg 71%
    16:00 +6°C° 0.1 mm 5 mps 738 mmHg 74%
    17:00 +6°C° 0.1 mm 5 mps 738 mmHg 76%
    18:00 +5°C° 0.1 mm 5 mps 738 mmHg 79%
    19:00 +5°C° 0.1 mm 5 mps 738 mmHg 80%
    20:00 +3°C° 0.1 mm 5 mps 738 mmHg 80%
    21:00 +3°C° 0.1 mm 5 mps 738 mmHg 81%
    22:00 +3°C° 0.1 mm 5 mps 738 mmHg 81%
    23:00 +3°C° 0.1 mm 6 mps 738 mmHg 81%

    25 January, Thursday

    Time Temperature Precipitation Wind Pressure Humidity
    00:00 +3°C° 0.1 mm 6 mps 739 mmHg 81%
    01:00 +3°C° 0.1 mm 6 mps 738 mmHg 80%
    02:00 +2°C° 0.1 mm 6 mps 738 mmHg 79%
    03:00 +2°C° 0.1 mm 6 mps 738 mmHg 78%
    04:00 +2°C° 0.1 mm 6 mps 738 mmHg 78%
    05:00 +2°C° 0.1 mm 7 mps 738 mmHg 77%
    06:00 +2°C° 0.1 mm 7 mps 738 mmHg 76%
    07:00 +2°C° 0.1 mm 7 mps 738 mmHg 77%
    08:00 +3°C° 0.1 mm 7 mps 738 mmHg 78%
    09:00 +3°C° 0.1 mm 6 mps 738 mmHg 79%
    10:00 +3°C° 0.1 mm 7 mps 739 mmHg 75%
    11:00 +4°C° 0.1 mm 7 mps 739 mmHg 71%
    12:00 +5°C° 0.1 mm 7 mps 740 mmHg 67%
    13:00 +5°C° 0.1 mm 7 mps 740 mmHg 67%
    14:00 +5°C° 0.1 mm 7 mps 740 mmHg 67%
    15:00 +5°C° 0.1 mm 6 mps 740 mmHg 67%
    16:00 +4°C° 0.1 mm 6 mps 740 mmHg 70%
    17:00 +3°C° 0.1 mm 5 mps 740 mmHg 73%
    18:00 +4°C° 0.1 mm 4 mps 740 mmHg 76%
    19:00 +4°C° 0.2 mm 4 mps 741 mmHg 79%
    20:00 +4°C° 0.2 mm 3 mps 742 mmHg 81%
    21:00 +4°C° 0.2 mm 3 mps 743 mmHg 84%
    22:00 +3°C° 0.1 mm 3 mps 744 mmHg 85%
    23:00 +3°C° 0.1 mm 3 mps 744 mmHg 86%

    26 January, Friday

    Time Temperature Precipitation Wind Pressure Humidity
    00:00 +3°C° 0.1 mm 4 mps 745 mmHg 86%
    01:00 +1°C° 0 mm 4 mps 746 mmHg 85%
    02:00 +1°C° 0 mm 4 mps 747 mmHg 84%
    03:00 +1°C° 0 mm 4 mps 748 mmHg 83%
    04:00 0°C° 0 mm 5 mps 749 mmHg 82%
    05:00 0°C° 0 mm 5 mps 750 mmHg 81%
    06:00 0°C° 0 mm 5 mps 751 mmHg 81%
    07:00 0°C° 0 mm 5 mps 752 mmHg 80%
    08:00 0°C° 0 mm 5 mps 753 mmHg 78%
    09:00 0°C° 0 mm 5 mps 754 mmHg 77%
    10:00 +1°C° 0 mm 6 mps 755 mmHg 74%
    11:00 +2°C° 0 mm 6 mps 756 mmHg 71%
    12:00 +2°C° 0 mm 6 mps 756 mmHg 67%
    13:00 +2°C° 0 mm 6 mps 757 mmHg 68%
    14:00 +2°C° 0 mm 5 mps 758 mmHg 68%
    15:00 +2°C° 0 mm 5 mps 758 mmHg 68%
    16:00 +1°C° 0 mm 4 mps 759 mmHg 71%
    17:00 0°C° 0 mm 4 mps 760 mmHg 74%
    18:00 0°C° 0 mm 3 mps 761 mmHg 77%
    19:00 0°C° 0 mm 3 mps 762 mmHg 77%
    20:00 +1°C° 0 mm 2 mps 762 mmHg 77%
    21:00 -1°C° 0 mm 2 mps 763 mmHg 77%
    22:00 -1°C° 0 mm 2 mps 763 mmHg 76%
    23:00 -1°C° 0 mm 2 mps 764 mmHg 75%
    Show more